Location: Cheyres
(46.8153°N, 6.7877°E)
Time: 21:33:02
(UTC+00:00)

NANOSAT C BR1 - Pass Details

Date: 05 July 2022
Orbit: 584 x 599 km, 98.0° (Epoch: 13 August)

Event Time Altitude Azimuth Distance (km) Brightness Sun altitude
Rises 01:46:20 0° 13° (NNE) 2,853 ? -14.5°
Reaches altitude 10° 01:48:30 10° 14° (NNE) 1,948 ? -14.4°
Maximum altitude 01:52:45 87° 104° (ESE) 607 ? -14.0°
Enters shadow 01:55:35 21° 193° (SSW) 1,379 ? -13.7°
